UAL1909 KIAH-MMVR

Flight info

Callsign UAL1909
Flight time 1h 48m
Altitude 30000
Route RITAA7 WWREN DCT BRO/N0469F310 DCT IPRUL UT48 AVALI UT61 DURIB DURIB1A
Aircraft B738/M-SDE2E3FGHIRWXY/LB1

Departure

Time 2026-04-21 22:23
Airport George Bush Intercontinental Airport (KIAH)

Arrival

Time 2026-04-22 00:11
Airport General Heriberto Jara International Airport (MMVR)
Time Latitude Longitude Altitude Speed Heading
2026-04-21 21:55 29.98940 -95.34104 106 ft 0 kts 240°
2026-04-21 21:57 29.98941 -95.34103 106 ft 0 kts 240°
2026-04-21 22:15 29.98941 -95.34102 106 ft 1 kts 240°
2026-04-21 22:16 29.98952 -95.34080 106 ft 4 kts 241°
2026-04-21 22:16 29.98963 -95.34052 106 ft 4 kts 262°
2026-04-21 22:16 29.98961 -95.34025 106 ft 4 kts 312°
2026-04-21 22:16 29.98946 -95.34016 104 ft 3 kts
2026-04-21 22:17 29.98927 -95.34016 105 ft 0 kts
2026-04-21 22:19 29.98928 -95.34016 105 ft 2 kts
2026-04-21 22:19 29.98970 -95.34016 105 ft 10 kts 358°
2026-04-21 22:19 29.99060 -95.34035 106 ft 16 kts 328°
2026-04-21 22:19 29.99087 -95.34181 106 ft 23 kts 268°
2026-04-21 22:20 29.99084 -95.34383 106 ft 28 kts 270°
2026-04-21 22:20 29.99084 -95.34632 106 ft 34 kts 269°
2026-04-21 22:20 29.99088 -95.34917 106 ft 37 kts 271°
2026-04-21 22:20 29.99093 -95.35208 106 ft 35 kts 270°
2026-04-21 22:21 29.99081 -95.35463 106 ft 25 kts 247°
2026-04-21 22:21 29.99002 -95.35504 106 ft 12 kts 169°
2026-04-21 22:21 29.98920 -95.35514 106 ft 12 kts 221°
2026-04-21 22:21 29.98869 -95.35593 104 ft 12 kts 240°
2026-04-21 22:22 29.98828 -95.35680 105 ft 12 kts 242°
2026-04-21 22:22 29.98776 -95.35753 106 ft 12 kts 200°
2026-04-21 22:22 29.98698 -95.35732 107 ft 12 kts 152°
2026-04-21 22:22 29.98613 -95.35680 107 ft 22 kts 153°
2026-04-21 22:23 29.98226 -95.35442 106 ft 105 kts 152°
2026-04-21 22:23 29.97357 -95.34908 109 ft 176 kts 152°
2026-04-21 22:23 29.96147 -95.34302 798 ft 199 kts 158°
2026-04-21 22:23 29.94864 -95.33797 2026 ft 182 kts 154°
2026-04-21 22:24 29.93796 -95.33025 3005 ft 190 kts 141°
2026-04-21 22:24 29.92793 -95.31853 3495 ft 214 kts 135°
2026-04-21 22:24 29.91903 -95.30482 4420 ft 219 kts 125°
2026-04-21 22:24 29.91104 -95.28881 4962 ft 239 kts 127°
2026-04-21 22:25 29.90105 -95.27352 5921 ft 237 kts 133°
2026-04-21 22:25 29.88968 -95.25939 6726 ft 249 kts 135°
2026-04-21 22:25 29.87827 -95.24298 7129 ft 276 kts 130°
2026-04-21 22:25 29.86703 -95.22427 7671 ft 289 kts 125°
2026-04-21 22:26 29.85624 -95.20428 8320 ft 300 kts 127°
2026-04-21 22:26 29.84326 -95.18511 9102 ft 307 kts 133°
2026-04-21 22:26 29.83118 -95.16387 9780 ft 328 kts 120°
2026-04-21 22:26 29.81983 -95.14031 10463 ft 342 kts 122°
2026-04-21 22:27 29.80756 -95.11692 11030 ft 338 kts 134°
2026-04-21 22:27 29.78988 -95.09970 11682 ft 332 kts 148°
2026-04-21 22:27 29.76965 -95.08740 12255 ft 327 kts 171°
2026-04-21 22:27 29.74759 -95.08732 12926 ft 315 kts 197°
2026-04-21 22:28 29.72710 -95.09545 13595 ft 310 kts 210°
2026-04-21 22:28 29.70961 -95.10910 14230 ft 308 kts 222°
2026-04-21 22:28 29.69315 -95.12489 14834 ft 309 kts 223°
2026-04-21 22:28 29.67659 -95.14085 15452 ft 312 kts 223°
2026-04-21 22:29 29.65987 -95.15684 16078 ft 313 kts 223°
2026-04-21 22:29 29.64384 -95.17378 16716 ft 313 kts 227°
2026-04-21 22:29 29.62819 -95.19133 17339 ft 316 kts 227°
2026-04-21 22:29 29.61223 -95.20913 17846 ft 323 kts 227°
2026-04-21 22:30 29.59586 -95.22710 18374 ft 328 kts 224°
2026-04-21 22:30 29.57661 -95.24176 18837 ft 338 kts 211°
2026-04-21 22:30 29.55534 -95.25371 19311 ft 343 kts 210°
2026-04-21 22:30 29.53368 -95.26557 19774 ft 347 kts 210°
2026-04-21 22:31 29.51177 -95.27756 20272 ft 351 kts 210°
2026-04-21 22:31 29.48965 -95.28972 20753 ft 354 kts 210°
2026-04-21 22:31 29.46741 -95.30204 21246 ft 357 kts 210°
2026-04-21 22:31 29.44502 -95.31450 21736 ft 359 kts 210°
2026-04-21 22:32 29.42248 -95.32708 22222 ft 361 kts 211°
2026-04-21 22:32 29.39987 -95.33972 22726 ft 363 kts 211°
2026-04-21 22:32 29.37713 -95.35244 23244 ft 364 kts 211°
2026-04-21 22:32 29.35437 -95.36518 23764 ft 365 kts 211°
2026-04-21 22:33 29.33150 -95.37798 24207 ft 366 kts 211°
2026-04-21 22:33 29.30862 -95.39077 24635 ft 366 kts 211°
2026-04-21 22:33 29.28575 -95.40356 25091 ft 366 kts 212°
2026-04-21 22:33 29.26284 -95.41636 25553 ft 366 kts 212°
2026-04-21 22:34 29.23999 -95.42913 26022 ft 365 kts 212°
2026-04-21 22:34 29.21715 -95.44188 26506 ft 365 kts 212°
2026-04-21 22:34 29.19432 -95.45462 26996 ft 365 kts 212°
2026-04-21 22:34 29.17149 -95.46736 27483 ft 364 kts 213°
2026-04-21 22:35 29.14877 -95.48002 27983 ft 362 kts 213°
2026-04-21 22:35 29.12614 -95.49262 28463 ft 360 kts 213°
2026-04-21 22:35 29.10369 -95.50512 28977 ft 358 kts 214°
2026-04-21 22:35 29.08141 -95.51751 29515 ft 355 kts 214°
2026-04-21 22:36 29.03710 -95.54221 30156 ft 361 kts 214°
2026-04-21 22:36 28.99082 -95.56806 30184 ft 379 kts 214°
2026-04-21 22:37 28.94380 -95.59407 30161 ft 374 kts 214°
2026-04-21 22:37 28.89742 -95.61985 30165 ft 369 kts 216°
2026-04-21 22:38 28.85227 -95.64781 30150 ft 370 kts 217°
2026-04-21 22:38 28.80697 -95.67684 30177 ft 383 kts 217°
2026-04-21 22:39 28.78336 -95.69195 30146 ft 395 kts 217°
2026-04-21 22:39 28.75910 -95.70738 30153 ft 404 kts 217°
2026-04-21 22:39 28.70885 -95.73908 30156 ft 421 kts 216°
2026-04-21 22:40 28.65655 -95.77190 30154 ft 437 kts 216°
2026-04-21 22:40 28.60235 -95.80585 30137 ft 451 kts 216°
2026-04-21 22:41 28.54706 -95.84039 30134 ft 454 kts 216°
2026-04-21 22:41 28.49176 -95.87491 30129 ft 453 kts 215°
2026-04-21 22:42 28.43660 -95.90935 30136 ft 452 kts 215°
2026-04-21 22:42 28.38158 -95.94369 30127 ft 451 kts 215°
2026-04-21 22:43 28.32664 -95.97794 30131 ft 450 kts 215°
2026-04-21 22:43 28.27178 -96.01211 30123 ft 449 kts 215°
2026-04-21 22:44 28.21700 -96.04618 30108 ft 449 kts 215°
2026-04-21 22:44 28.16259 -96.08000 30119 ft 449 kts 215°
2026-04-21 22:45 28.10767 -96.11379 30112 ft 450 kts 214°
2026-04-21 22:45 28.05206 -96.14660 30109 ft 451 kts 214°
2026-04-21 22:46 27.99628 -96.17921 30115 ft 452 kts 214°
2026-04-21 22:46 27.94104 -96.21296 30098 ft 446 kts 222°
2026-04-21 22:47 27.89140 -96.25402 30126 ft 453 kts 210°
2026-04-21 22:47 27.83263 -96.28128 30105 ft 457 kts 209°
2026-04-21 22:48 27.77459 -96.31046 30100 ft 456 kts 212°
2026-04-21 22:48 27.71779 -96.34237 30104 ft 456 kts 213°
2026-04-21 22:49 27.66151 -96.37534 30102 ft 456 kts 213°
2026-04-21 22:49 27.60522 -96.40848 30098 ft 457 kts 213°
2026-04-21 22:50 27.54886 -96.44151 30096 ft 457 kts 213°
2026-04-21 22:50 27.49246 -96.47444 30093 ft 456 kts 214°
2026-04-21 22:51 27.43611 -96.50728 30096 ft 456 kts 213°
2026-04-21 22:51 27.37985 -96.54003 30096 ft 455 kts 214°
2026-04-21 22:52 27.33318 -96.56717 30093 ft 454 kts 213°
2026-04-21 22:52 27.27707 -96.59977 30086 ft 454 kts 214°
2026-04-21 22:53 27.22099 -96.63232 30088 ft 454 kts 214°
2026-04-21 22:53 27.16487 -96.66486 30087 ft 454 kts 214°
2026-04-21 22:54 27.10872 -96.69737 30092 ft 454 kts 214°
2026-04-21 22:54 27.05249 -96.72989 30080 ft 455 kts 213°
2026-04-21 22:55 26.99619 -96.76242 30068 ft 455 kts 214°
2026-04-21 22:55 26.93983 -96.79494 30079 ft 456 kts 214°
2026-04-21 22:56 26.88342 -96.82745 30082 ft 456 kts 213°
2026-04-21 22:56 26.82696 -96.85996 30079 ft 456 kts 214°
2026-04-21 22:57 26.77047 -96.89245 30079 ft 456 kts 214°
2026-04-21 22:57 26.71400 -96.92489 30075 ft 456 kts 214°
2026-04-21 22:58 26.65755 -96.95727 30069 ft 455 kts 213°
2026-04-21 22:58 26.60157 -96.98935 30074 ft 455 kts 213°
2026-04-21 22:59 26.54530 -97.02157 30077 ft 454 kts 213°
2026-04-21 22:59 26.48906 -97.05374 30077 ft 454 kts 213°
2026-04-21 23:00 26.43288 -97.08583 30076 ft 453 kts 213°
2026-04-21 23:00 26.37674 -97.11787 30053 ft 453 kts 213°
2026-04-21 23:01 26.32090 -97.14971 30077 ft 455 kts 213°
2026-04-21 23:01 26.27350 -97.17673 30085 ft 460 kts 213°
2026-04-21 23:02 26.20690 -97.21460 30076 ft 459 kts 213°
2026-04-21 23:02 26.15021 -97.24678 30077 ft 456 kts 213°
2026-04-21 23:03 26.09359 -97.27893 30082 ft 457 kts 213°
2026-04-21 23:03 26.03681 -97.31113 30075 ft 459 kts 213°
2026-04-21 23:04 25.97991 -97.34336 30075 ft 459 kts 213°
2026-04-21 23:04 25.91988 -97.36886 30089 ft 471 kts 198°
2026-04-21 23:05 25.85389 -97.37497 30088 ft 482 kts 185°
2026-04-21 23:05 25.78678 -97.37279 30083 ft 482 kts 184°
2026-04-21 23:06 25.71974 -97.37059 30069 ft 481 kts 184°
2026-04-21 23:06 25.65284 -97.36886 30069 ft 480 kts 185°
2026-04-21 23:07 25.58604 -97.36737 30079 ft 480 kts 185°
2026-04-21 23:07 25.51927 -97.36592 30075 ft 480 kts 185°
2026-04-21 23:08 25.45250 -97.36445 30036 ft 480 kts 185°
2026-04-21 23:08 25.38619 -97.36298 30066 ft 480 kts 185°
2026-04-21 23:09 25.31933 -97.36150 30057 ft 481 kts 185°
2026-04-21 23:09 25.25232 -97.36001 30067 ft 482 kts 185°
2026-04-21 23:10 25.18526 -97.35853 30061 ft 482 kts 185°
2026-04-21 23:10 25.11811 -97.35704 30049 ft 483 kts 185°
2026-04-21 23:11 25.05093 -97.35555 30060 ft 483 kts 185°
2026-04-21 23:11 24.98368 -97.35407 30059 ft 484 kts 185°
2026-04-21 23:12 24.91638 -97.35258 30056 ft 484 kts 185°
2026-04-21 23:12 24.85071 -97.35114 30054 ft 484 kts 185°
2026-04-21 23:13 24.78340 -97.34965 30049 ft 484 kts 184°
2026-04-21 23:13 24.71611 -97.34817 30053 ft 484 kts 184°
2026-04-21 23:14 24.64880 -97.34669 30049 ft 484 kts 184°
2026-04-21 23:14 24.58152 -97.34522 30050 ft 483 kts 184°
2026-04-21 23:15 24.51472 -97.34325 30046 ft 486 kts 181°
2026-04-21 23:15 24.44736 -97.33457 30057 ft 488 kts 177°
2026-04-21 23:16 24.38009 -97.32396 30048 ft 489 kts 177°
2026-04-21 23:16 24.31276 -97.31378 30047 ft 488 kts 178°
2026-04-21 23:17 24.24540 -97.30410 30046 ft 488 kts 178°
2026-04-21 23:17 24.17809 -97.29462 30037 ft 487 kts 178°
2026-04-21 23:18 24.11056 -97.28512 30055 ft 491 kts 178°
2026-04-21 23:18 24.04268 -97.27555 30046 ft 492 kts 178°
2026-04-21 23:19 23.97470 -97.26595 30046 ft 493 kts 178°
2026-04-21 23:19 23.90675 -97.25636 30046 ft 492 kts 178°
2026-04-21 23:20 23.83886 -97.24680 30042 ft 492 kts 178°
2026-04-21 23:20 23.77102 -97.23726 30045 ft 491 kts 178°
2026-04-21 23:21 23.70329 -97.22774 30043 ft 491 kts 178°
2026-04-21 23:21 23.63557 -97.21824 30045 ft 490 kts 178°
2026-04-21 23:22 23.56786 -97.20875 30025 ft 490 kts 177°
2026-04-21 23:22 23.50027 -97.19928 30042 ft 490 kts 177°
2026-04-21 23:23 23.43269 -97.18982 30045 ft 490 kts 177°
2026-04-21 23:23 23.36514 -97.18038 30044 ft 490 kts 177°
2026-04-21 23:24 23.29756 -97.17094 30041 ft 490 kts 177°
2026-04-21 23:24 23.22997 -97.16152 30032 ft 490 kts 177°
2026-04-21 23:25 23.16280 -97.15216 30044 ft 490 kts 177°
2026-04-21 23:25 23.09505 -97.14272 30044 ft 491 kts 177°
2026-04-21 23:26 23.02724 -97.13327 30046 ft 492 kts 177°
2026-04-21 23:26 22.95933 -97.12381 30044 ft 492 kts 177°
2026-04-21 23:27 22.89136 -97.11434 30040 ft 493 kts 177°
2026-04-21 23:27 22.82334 -97.10489 30046 ft 493 kts 177°
2026-04-21 23:28 22.75518 -97.09542 30044 ft 494 kts 177°
2026-04-21 23:28 22.68693 -97.08595 30041 ft 495 kts 177°
2026-04-21 23:29 22.61863 -97.07648 30023 ft 495 kts 177°
2026-04-21 23:29 22.55034 -97.06702 30055 ft 495 kts 176°
2026-04-21 23:30 22.48189 -97.05755 30044 ft 496 kts 176°
2026-04-21 23:30 22.41341 -97.04808 30044 ft 496 kts 176°
2026-04-21 23:31 22.34485 -97.03861 30035 ft 497 kts 176°
2026-04-21 23:31 22.27676 -97.02922 30042 ft 496 kts 176°
2026-04-21 23:32 22.20826 -97.01978 30048 ft 496 kts 176°
2026-04-21 23:32 22.13978 -97.01035 30034 ft 496 kts 176°
2026-04-21 23:33 22.07130 -97.00093 30033 ft 496 kts 176°
2026-04-21 23:33 22.00284 -96.99152 30044 ft 496 kts 176°
2026-04-21 23:34 21.93442 -96.98213 30036 ft 496 kts 176°
2026-04-21 23:34 21.86599 -96.97275 30045 ft 496 kts 176°
2026-04-21 23:35 21.79759 -96.96337 30034 ft 496 kts 176°
2026-04-21 23:35 21.72917 -96.95397 30043 ft 496 kts 176°
2026-04-21 23:36 21.66060 -96.94449 29697 ft 497 kts 176°
2026-04-21 23:36 21.62636 -96.93975 29457 ft 496 kts 175°
2026-04-21 23:36 21.59213 -96.93502 29193 ft 496 kts 175°
2026-04-21 23:37 21.55785 -96.93029 28911 ft 497 kts 175°
2026-04-21 23:37 21.52352 -96.92556 28623 ft 497 kts 175°
2026-04-21 23:37 21.48921 -96.92084 28345 ft 497 kts 175°
2026-04-21 23:37 21.45495 -96.91618 28054 ft 495 kts 175°
2026-04-21 23:38 21.42089 -96.91157 27781 ft 493 kts 175°
2026-04-21 23:38 21.38699 -96.90699 27509 ft 490 kts 175°
2026-04-21 23:38 21.35329 -96.90244 27233 ft 486 kts 175°
2026-04-21 23:38 21.31979 -96.89792 26961 ft 483 kts 175°
2026-04-21 23:39 21.28654 -96.89343 26693 ft 481 kts 175°
2026-04-21 23:39 21.25343 -96.88896 26428 ft 478 kts 175°
2026-04-21 23:39 21.22053 -96.88452 26166 ft 475 kts 175°
2026-04-21 23:39 21.18777 -96.88010 25907 ft 473 kts 175°
2026-04-21 23:40 21.16618 -96.87719 25739 ft 472 kts 175°
2026-04-21 23:40 21.12270 -96.87133 25395 ft 470 kts 175°
2026-04-21 23:40 21.10124 -96.86844 25230 ft 468 kts 175°
2026-04-21 23:40 21.06893 -96.86409 24978 ft 467 kts 175°
2026-04-21 23:41 21.03678 -96.85976 24730 ft 465 kts 175°
2026-04-21 23:41 21.00470 -96.85544 24484 ft 464 kts 175°
2026-04-21 23:41 20.97272 -96.85114 24230 ft 462 kts 174°
2026-04-21 23:41 20.94087 -96.84686 23987 ft 461 kts 174°
2026-04-21 23:42 20.90913 -96.84259 23747 ft 459 kts 174°
2026-04-21 23:42 20.87750 -96.83834 23492 ft 457 kts 174°
2026-04-21 23:42 20.84595 -96.83410 23211 ft 456 kts 174°
2026-04-21 23:42 20.81456 -96.82988 22921 ft 454 kts 174°
2026-04-21 23:43 20.78323 -96.82568 22634 ft 452 kts 174°
2026-04-21 23:43 20.75204 -96.82149 22357 ft 451 kts 174°
2026-04-21 23:43 20.72100 -96.81732 22087 ft 449 kts 174°
2026-04-21 23:43 20.69009 -96.81297 21812 ft 447 kts 174°
2026-04-21 23:44 20.65935 -96.80853 21534 ft 445 kts 174°
2026-04-21 23:44 20.62870 -96.80414 21264 ft 443 kts 174°
2026-04-21 23:44 20.59824 -96.79998 20999 ft 440 kts 174°
2026-04-21 23:44 20.56789 -96.79595 20735 ft 438 kts 174°
2026-04-21 23:45 20.53769 -96.79197 20474 ft 436 kts 174°
2026-04-21 23:45 20.47765 -96.78404 19959 ft 433 kts 174°
2026-04-21 23:45 20.44781 -96.78007 19704 ft 432 kts 174°
2026-04-21 23:46 20.41808 -96.77611 19453 ft 430 kts 174°
2026-04-21 23:46 20.38843 -96.77215 19203 ft 429 kts 174°
2026-04-21 23:46 20.35925 -96.76826 18971 ft 427 kts 174°
2026-04-21 23:46 20.32981 -96.76434 18743 ft 426 kts 174°
2026-04-21 23:47 20.30046 -96.76043 18523 ft 424 kts 174°
2026-04-21 23:47 20.27120 -96.75654 18294 ft 423 kts 174°
2026-04-21 23:47 20.24204 -96.75266 18034 ft 422 kts 174°
2026-04-21 23:47 20.21297 -96.74867 17787 ft 421 kts 172°
2026-04-21 23:48 20.18449 -96.74132 17535 ft 422 kts 162°
2026-04-21 23:48 20.15758 -96.72890 17289 ft 421 kts 154°
2026-04-21 23:48 20.13153 -96.71467 17041 ft 420 kts 153°
2026-04-21 23:48 20.10566 -96.70039 16794 ft 418 kts 153°
2026-04-21 23:49 20.07988 -96.68625 16541 ft 416 kts 153°
2026-04-21 23:49 20.05413 -96.67228 16312 ft 415 kts 154°
2026-04-21 23:49 20.02839 -96.65843 16121 ft 414 kts 154°
2026-04-21 23:49 20.00259 -96.64462 16065 ft 417 kts 154°
2026-04-21 23:50 19.97686 -96.63086 16050 ft 411 kts 154°
2026-04-21 23:50 19.95142 -96.61728 16037 ft 408 kts 154°
2026-04-21 23:50 19.92604 -96.60372 16054 ft 409 kts 154°
2026-04-21 23:50 19.90057 -96.59013 16056 ft 410 kts 154°
2026-04-21 23:51 19.87443 -96.57807 16047 ft 409 kts 162°
2026-04-21 23:51 19.84720 -96.56937 15884 ft 409 kts 165°
2026-04-21 23:51 19.81971 -96.56160 15607 ft 407 kts 166°
2026-04-21 23:51 19.79237 -96.55405 15306 ft 404 kts 166°
2026-04-21 23:52 19.76531 -96.54643 14995 ft 401 kts 165°
2026-04-21 23:52 19.73846 -96.53867 14682 ft 399 kts 165°
2026-04-21 23:52 19.71182 -96.53082 14386 ft 397 kts 165°
2026-04-21 23:52 19.68527 -96.52289 14093 ft 395 kts 165°
2026-04-21 23:53 19.65882 -96.51494 13801 ft 394 kts 164°
2026-04-21 23:53 19.63248 -96.50699 13472 ft 393 kts 164°
2026-04-21 23:53 19.60624 -96.49907 13147 ft 392 kts 164°
2026-04-21 23:53 19.58005 -96.49118 12823 ft 391 kts 164°
2026-04-21 23:54 19.55394 -96.48331 12507 ft 389 kts 164°
2026-04-21 23:54 19.52799 -96.47549 12184 ft 386 kts 164°
2026-04-21 23:54 19.50240 -96.46779 11867 ft 379 kts 164°
2026-04-21 23:54 19.47728 -96.46023 11552 ft 372 kts 164°
2026-04-21 23:55 19.45262 -96.45281 11234 ft 363 kts 164°
2026-04-21 23:55 19.42870 -96.44561 10926 ft 353 kts 164°
2026-04-21 23:55 19.40537 -96.43860 10616 ft 344 kts 164°
2026-04-21 23:55 19.38264 -96.43176 10311 ft 336 kts 164°
2026-04-21 23:56 19.36042 -96.42509 10095 ft 326 kts 164°
2026-04-21 23:56 19.33916 -96.41870 10049 ft 310 kts 164°
2026-04-21 23:56 19.31887 -96.41261 9941 ft 298 kts 164°
2026-04-21 23:56 19.29917 -96.40670 9697 ft 291 kts 164°
2026-04-21 23:57 19.27992 -96.40093 9477 ft 283 kts 164°
2026-04-21 23:57 19.26107 -96.39528 9240 ft 281 kts 164°
2026-04-21 23:57 19.24244 -96.38969 8943 ft 275 kts 164°
2026-04-21 23:57 19.22435 -96.38427 8687 ft 265 kts 164°
2026-04-21 23:58 19.20686 -96.37903 8374 ft 258 kts 164°
2026-04-21 23:58 19.18984 -96.37392 8070 ft 250 kts 164°
2026-04-21 23:58 19.17323 -96.36895 7704 ft 246 kts 164°
2026-04-21 23:58 19.15699 -96.36409 7354 ft 245 kts 164°
2026-04-21 23:59 19.14073 -96.35922 7080 ft 239 kts 164°
2026-04-21 23:59 19.12499 -96.35451 7044 ft 228 kts 164°
2026-04-21 23:59 19.10972 -96.34994 6861 ft 230 kts 164°
2026-04-21 23:59 19.09450 -96.34538 6607 ft 228 kts 164°
2026-04-22 00:00 19.07938 -96.34086 6339 ft 224 kts 164°
2026-04-22 00:00 19.06448 -96.33639 6015 ft 222 kts 164°
2026-04-22 00:00 19.04973 -96.33198 5694 ft 219 kts 164°
2026-04-22 00:00 19.03510 -96.32761 5377 ft 218 kts 164°
2026-04-22 00:01 19.02057 -96.32326 5068 ft 216 kts 164°
2026-04-22 00:01 19.00615 -96.31895 4749 ft 215 kts 163°
2026-04-22 00:01 18.99341 -96.31123 4389 ft 214 kts 129°
2026-04-22 00:01 18.98793 -96.29712 4114 ft 208 kts 91°
2026-04-22 00:02 18.98983 -96.28254 3962 ft 197 kts 71°
2026-04-22 00:02 18.99442 -96.26887 3655 ft 197 kts 69°
2026-04-22 00:02 18.99917 -96.25550 3373 ft 191 kts 68°
2026-04-22 00:02 19.00373 -96.24255 3037 ft 185 kts 68°
2026-04-22 00:03 19.00820 -96.22999 2668 ft 181 kts 64°
2026-04-22 00:03 19.01611 -96.22022 2290 ft 173 kts 34°
2026-04-22 00:03 19.02690 -96.21545 1948 ft 167 kts 16°
2026-04-22 00:03 19.03804 -96.21273 1581 ft 163 kts 15°
2026-04-22 00:04 19.04891 -96.21023 1208 ft 157 kts 14°
2026-04-22 00:04 19.05924 -96.20770 964 ft 146 kts 18°
2026-04-22 00:04 19.06863 -96.20509 779 ft 136 kts 17°
2026-04-22 00:04 19.07849 -96.20330 1123 ft 144 kts 11°
2026-04-22 00:05 19.08857 -96.20184 1096 ft 149 kts
2026-04-22 00:05 19.09885 -96.19988 1173 ft 148 kts 24°
2026-04-22 00:05 19.10825 -96.19565 1313 ft 144 kts 25°
2026-04-22 00:05 19.11812 -96.19241 1247 ft 153 kts 19°
2026-04-22 00:06 19.12723 -96.18707 1245 ft 154 kts 45°
2026-04-22 00:06 19.13153 -96.17681 1182 ft 161 kts 89°
2026-04-22 00:06 19.13044 -96.16507 1221 ft 162 kts 101°
2026-04-22 00:06 19.12483 -96.15480 1264 ft 164 kts 124°
2026-04-22 00:07 19.11575 -96.14724 1299 ft 170 kts 152°
2026-04-22 00:07 19.10460 -96.14285 1327 ft 174 kts 167°
2026-04-22 00:07 19.09278 -96.14088 1360 ft 171 kts 168°
2026-04-22 00:07 19.08097 -96.13980 1410 ft 174 kts 183°
2026-04-22 00:08 19.06901 -96.14122 1448 ft 172 kts 186°
2026-04-22 00:08 19.05734 -96.14468 1465 ft 177 kts 195°
2026-04-22 00:08 19.04648 -96.15047 1346 ft 175 kts 223°
2026-04-22 00:08 19.04128 -96.16168 1270 ft 173 kts 268°
2026-04-22 00:09 19.04402 -96.17380 1230 ft 170 kts 292°
2026-04-22 00:09 19.04798 -96.18545 1150 ft 168 kts 291°
2026-04-22 00:09 19.05198 -96.19712 1134 ft 170 kts 293°
2026-04-22 00:09 19.05943 -96.20649 991 ft 168 kts 335°
2026-04-22 00:10 19.07030 -96.20776 905 ft 156 kts 15°
2026-04-22 00:10 19.08112 -96.20442 823 ft 164 kts 20°
2026-04-22 00:10 19.09203 -96.20098 693 ft 161 kts 17°
2026-04-22 00:10 19.10238 -96.19600 634 ft 165 kts 26°
2026-04-22 00:11 19.11244 -96.19053 552 ft 158 kts 18°
2026-04-22 00:11 19.12310 -96.19068 396 ft 161 kts 342°
2026-04-22 00:11 19.13163 -96.19063 89 ft 0 kts 30°
2026-04-22 00:11 19.13909 -96.18876 81 ft 80 kts 10°
2026-04-22 00:12 19.14240 -96.18808 76 ft 17 kts 11°
2026-04-22 00:12 19.14257 -96.18804 70 ft 0 kts 11°
2026-04-22 00:12 19.14258 -96.18804 73 ft 0 kts 11°
2026-04-22 00:12 19.14360 -96.18763 76 ft 27 kts 52°
2026-04-22 00:13 19.14353 -96.18578 63 ft 26 kts 101°
2026-04-22 00:13 19.14298 -96.18511 70 ft 14 kts 169°
2026-04-22 00:13 19.14240 -96.18516 73 ft 0 kts 167°
2026-04-22 00:13 19.14236 -96.18511 73 ft 0 kts 137°
2026-04-22 00:14 19.14235 -96.18510 73 ft 0 kts 137°
2026-04-22 00:14 19.14221 -96.18480 74 ft 14 kts 107°
2026-04-22 00:14 19.14217 -96.18456 76 ft 1 kts 89°
2026-04-22 00:14 19.14217 -96.18444 76 ft 3 kts 94°
2026-04-22 00:15 19.14216 -96.18434 76 ft 0 kts 95°